Retour au catalogue

FENGYUN 1C DEB

ActifPO
NORAD 36234·DEBRIS·🇨🇳 China

Lancé May 10, 1999 depuis Taiyuan Satellite Launch Center

Loading…

Prochains Passages (prochaines 24 heures)

TLE

PériméSource: Space-Track

Époque: Aug 31, 2026, 09:06 UTC

1 36234U 99025DVK 26243.37943627  .00000124  00000-0  19706-3 0  9994
2 36234  98.9686 291.3127 0318292  87.4942 276.2585 13.45804090914665

Suivez FENGYUN 1C DEB en temps réel avec AllMySat

Download on the App Store